Weather in Zapadnoye Konchezero

Russia / Republic of Karelia     62°06′28″N   34°00′32″E
temp.,
°C
wind,
m/s
gust,
m/s
humid.,
%
clouds,
%
prec.,
mm/h
press.,
hPa
HPBL,
m
28 february, sun
sun2800:00−3w1397100 0.1 1015134
03:00−4wsw2495100 0.1 1014130
06:00−7sw2296100 0.0 101249
09:00−6ssw1296100 0.0 101268
12:00−2sw249693 0.0 1013293
15:00−1sw259695 0.0 1014425
18:000wsw2597100 0.1 1015227
21:00+1w2799100 0.1 1016341
1 march, mon
mon100:00−3wsw269548 0.0 1015130
03:00−3wsw4119540 0.0 1015332
06:000w5119798 0.0 1012617
09:00+1wsw4119799 0.0 1011627
12:00+1w41298100 0.0 1008611
15:00+2w614100100 0.0 1007776
18:00+1w412100100 0.3 1005669
21:00+1w51289100 0.3 1004728
2 march, tue
tue200:000wnw4138567 0.1 1003775
03:00−1wnw5148647 0.1 1004796
06:00−2wnw5148396 0.0 10031015
09:00−2nw5148292 0.0 10051073
12:00−1nw61283100 0.0 10071082
15:00−1nnw51084100 0.1 1010962
18:00−3nw3118797 0.0 1012463
21:00−5wnw3108866 0.0 1013236
3 march, wed
wed300:00−5nw3119014 0.0 1014361
03:00−6wnw38947 0.0 1015205
06:00−7wnw310940 0.0 1015274
09:00−7wnw269410 0.0 1016199
12:00−3w379129 0.0 1015358
15:00−1w498940 0.0 1013576
18:00−2wsw41188100 0.0 1009521
21:00−1wsw51390100 0.0 1005758
4 march, thu
thu400:000wsw61396100 0.4 1000978
03:00+1w61396100 0.5 9961053
06:000wnw51297100 2.2 9931026
09:00−4wnw6138284 3.1 9931107
12:00−4nw7147899 0.1 9941557
15:00−4nw6128299 0.2 9971339
18:00−7nw41185100 0.1 1000756
21:00−10nw399196 0.1 1001305